sat.trackr.live / text

‹ back to catalog

STARLINK-37396

NORAD 69256 · 2026-117U

PAYLOAD ACTIVE UNKNOWN

§ Identity

Operator
Country
US
Launch date
2026-05-29
Launch site
AFETR
Launch vehicle
Mass (kg)
RCS (m²)

Purposes: comms

External: N2YO · Heavens-Above · Gunter

§ Orbital elements

Epoch: 2026-09-20T04:31:15.428928Z

Period
93.85 min
Inclination
53.1568°
Eccentricity
0.0000910
Mean motion
15.34395633 rev/d
Perigee alt
462.1 km
Apogee alt
463.3 km
Semi-major
6,840.9 km
B*
4.8236e-4
RAAN
154.8639°
Arg perigee
83.8433°
Mean anomaly
276.2673°
Rev number
1,762

§ Raw data

STARLINK-373961 69256U 26117U   26263.18837302  .00015953  00000+0  48236-3 0  99942 69256  53.1568 154.8639 0000910  83.8433 276.2673 15.34395633 17624

JSON: /api/v1/satellites/69256 · /tle

For live sub-satellite position, see the globe view (requires WebGL).

§ Visibility from observer

Set your observer location to see the next 7 days of passes ≥ 10°. The values pass through the URL so the page stays shareable.

No JS? Fill the form by hand. The geolocation button needs JavaScript.